Flag for Sweden Weather past 2 weeks in Södertälje, Sweden

46 °F

Passing clouds.

Feels Like: 43 °F
Forecast: 44 / 50 °F
Wind: 7 mph from Southeast

Location: Stockholm Bromma Airport

Current Time: Oct 7, 2015 at 6:31:25 PM

Latest Report: Oct 7, 2015 at 5:50 PM

Visibility: N/A

Pressure: 30.39 "Hg

Humidity: 62%

Dew point: 34 °F

Location of SödertäljeLocation

Historic Weather in Södertälje — Graph


Södertälje temperature yesterday

Maximum temperature yesterday: 50 °F (at 11:50 AM)
Minimum temperature yesterday: 36 °F (at 3:20 AM)
Average temperature yesterday: 43 °F

Past Weeks' High & Low Weather Summary

High64 °F (Oct 2, 2:50 PM)100% (Sep 22, 6:50 PM)30.74 "Hg (Sep 22, 6:50 PM)
Low36 °F (Oct 6, 3:20 AM)31% (Oct 3, 3:20 PM)29.77 "Hg (Sep 22, 5:20 PM)
Average52 °F79%30.15 "Hg
* Reported Sep 22 5:20 PM — Oct 7 5:20 PM, Södertälje, Weather by CustomWeather, © 2015

Note: Actual official high and low records may vary slightly from our data, if they occured in-between our weather recording intervals... More about our weather records


Södertälje weather history for previous 24 hours

Time TempWeatherWind HumidityBarometerVisibility
5:20 PM
Wed, Oct 7
46 °FPassing clouds.8 mph57%30.39 "HgN/A
4:50 PM48 °FScattered clouds.9 mph54%30.39 "HgN/A
4:20 PM48 °FScattered clouds.9 mph54%30.39 "HgN/A
3:50 PM48 °FPassing clouds.8 mph50%30.39 "HgN/A
3:20 PM48 °FPassing clouds.10 mph50%30.39 "HgN/A
2:50 PM50 °FSunny.9 mph47%30.42 "Hg10 mi
2:20 PM50 °FSunny.12 mph43%30.42 "Hg10 mi
1:50 PM50 °FSunny.12 mph43%30.42 "Hg10 mi
1:20 PM50 °FSunny.13 mph47%30.42 "Hg10 mi
12:50 PM50 °FPassing clouds.13 mph47%30.42 "HgN/A
12:20 PM50 °FPassing clouds.13 mph43%30.42 "HgN/A
11:50 AM50 °FSunny.13 mph43%30.42 "Hg10 mi
11:20 AM50 °FSunny.14 mph43%30.42 "Hg10 mi
10:50 AM48 °FSunny.12 mph50%30.42 "Hg10 mi
10:20 AM48 °FSunny.12 mph50%30.42 "Hg10 mi
9:50 AM48 °FSunny.10 mph54%30.42 "Hg10 mi
9:20 AM46 °FSunny.7 mph62%30.42 "Hg10 mi
8:50 AM45 °FPassing clouds.6 mph66%30.42 "HgN/A
8:20 AM43 °FSunny.5 mph66%30.39 "Hg10 mi
7:50 AM41 °FClear.5 mph70%30.39 "Hg10 mi
7:20 AM39 °FClear.6 mph75%30.39 "Hg10 mi
6:50 AM41 °FClear.6 mph70%30.39 "Hg10 mi
6:20 AM39 °FClear.8 mph75%30.39 "Hg10 mi
5:50 AM41 °FClear.7 mph76%30.39 "Hg10 mi
5:20 AM41 °FQuite cool.7 mph70%30.39 "HgN/A
4:50 AM41 °FQuite cool.8 mph76%30.39 "HgN/A
4:20 AM41 °FQuite cool.8 mph76%30.39 "HgN/A
3:50 AM41 °FPassing clouds.6 mph76%30.39 "HgN/A
3:20 AM39 °FPassing clouds.7 mph81%30.39 "HgN/A
2:50 AM36 °FChilly.5 mph87%30.39 "HgN/A
2:20 AM37 °FChilly.5 mph87%30.36 "HgN/A
1:50 AM39 °FPassing clouds.3 mph81%30.36 "HgN/A
1:20 AM41 °FPassing clouds.3 mph76%30.36 "HgN/A
12:50 AM43 °FPassing clouds.5 mph71%30.36 "HgN/A
12:20 AM43 °FPassing clouds.5 mph71%30.36 "HgN/A
11:20 PM
Tue, Oct 6
37 °FChilly.7 mph81%30.36 "HgN/A
10:50 PM39 °FChilly.7 mph81%30.36 "HgN/A
10:20 PM37 °FPassing clouds.7 mph81%30.36 "HgN/A
9:50 PM41 °FClear.7 mph76%30.36 "Hg10 mi
9:20 PM41 °FClear.6 mph76%30.36 "Hg10 mi
8:50 PM43 °FClear.6 mph71%30.36 "Hg10 mi
8:20 PM43 °FClear.6 mph71%30.36 "Hg10 mi
7:50 PM43 °FClear.5 mph71%30.36 "Hg10 mi
7:20 PM45 °FClear.6 mph66%30.36 "Hg10 mi
6:50 PM45 °FSunny.8 mph66%30.33 "Hg10 mi
6:20 PM46 °FPassing clouds.9 mph62%30.33 "HgN/A
Weather by CustomWeather, © 2015

See weather overviewHow to use our weather pages